Mather, CA

1:26 PM PST on February 10, 2016 (GMT -0800)
Mather

Weather History for KMHR - October, 2013

Change the Weather History Date:

Saturday, October 19, 2013

  Actual Average Record
Temperature  
Mean Temperature 63 °F -  
Max Temperature 82 °F 72 °F 91 °F (2011)
Min Temperature 44 °F 46 °F 44 °F (1996)
Degree Days  
Heating Degree Days 2    
Growing Degree Days 13 (Base 50)    
Moisture  
Dew Point 38 °F    
Average Humidity 46    
Maximum Humidity 76    
Minimum Humidity 19    
Precipitation  
Precipitation 0.00 in - - ()
Sea Level Pressure  
Sea Level Pressure 30.03 in    
Wind  
Wind Speed 2 mph (NNW)    
Max Wind Speed 6 mph    
Max Gust Speed -    
Visibility 10 miles    
Events      
Averages and records for this station are not official NWS values.
T = Trace of Precipitation, MM = Missing Value Source: NWS Daily Summary

Daily Weather History Graph

Daily Weather History Graph

Search for Another Location

Airport or City:

Trip Planner

Search our weather history database for the weather conditions in past years. The results will help you decide how hot, cold, wet, or windy it might be!

Date:

Astronomy

Oct. 19, 2013 Rise Set
Actual Time 7:18 AM PDT 6:20 PM PDT
Civil Twilight 6:51 AM PDT 6:47 PM PDT
Nautical Twilight 6:20 AM PDT 7:18 PM PDT
Astronomical Twilight 5:50 AM PDT 7:49 PM PDT
Moon 6:53 PM PDT (10/19) 8:00 AM PDT (10/19)
Length of Visible Light 11h 56m
Length of Day
11h 02m
Full, 99% of the Moon is Illuminated
Oct 19
Full
Oct 26
Last Quarter
Nov 3
New
Nov 9
First Quarter
Nov 17
Full

Hourly Weather History & Observations

Time (PDT) Temp. Dew Point Humidity Pressure Visibility Wind Dir Wind Speed Gust Speed Precip Events Conditions
12:45 AM 51.8 °F 39.2 °F 62% 30.02 in 10.0 mi East 3.5 mph - N/A   Clear
1:50 AM 48.2 °F 37.4 °F 66% 30.02 in 10.0 mi ENE 3.5 mph - N/A   Clear
2:45 AM 48.2 °F 35.6 °F 62% 30.02 in 10.0 mi Calm Calm - N/A   Clear
3:45 AM 48.2 °F 35.6 °F 62% 30.03 in 10.0 mi Calm Calm - N/A   Clear
4:45 AM 48.2 °F 39.2 °F 71% 30.03 in 10.0 mi Calm Calm - N/A   Clear
5:45 AM 44.6 °F 37.4 °F 76% 30.04 in 10.0 mi Calm Calm - N/A   Clear
6:45 AM 48.2 °F 41.0 °F 76% 30.05 in 10.0 mi Calm Calm - N/A   Clear
7:48 AM 46.4 °F 39.2 °F 76% 30.06 in 10.0 mi Calm Calm - N/A   Partly Cloudy
9:46 AM 62.6 °F 39.2 °F 42% 30.08 in 10.0 mi Calm Calm - N/A   Clear
10:47 AM 68.0 °F 41.0 °F 37% 30.08 in 10.0 mi NNW 4.6 mph - N/A   Clear
11:47 AM 73.4 °F 39.2 °F 29% 30.07 in 10.0 mi WNW 4.6 mph - N/A   Clear
12:47 PM 77.0 °F 37.4 °F 24% 30.05 in 10.0 mi Calm Calm - N/A   Clear
2:45 PM 82.4 °F 37.4 °F 20% 30.01 in 10.0 mi NW 4.6 mph - N/A   Clear
3:50 PM 82.4 °F 35.6 °F 19% 30.00 in 10.0 mi WNW 5.8 mph - N/A   Clear
4:50 PM 82.4 °F 37.4 °F 20% 29.99 in 10.0 mi NW 3.5 mph - N/A   Clear
5:50 PM 80.6 °F 35.6 °F 20% 29.98 in 10.0 mi NNW 3.5 mph - N/A   Clear
6:45 PM 73.4 °F 35.6 °F 25% 29.98 in 10.0 mi Calm Calm - N/A   Clear
7:45 PM 62.6 °F 37.4 °F 39% 29.99 in 10.0 mi Calm Calm - N/A   Clear
8:45 PM 57.2 °F 37.4 °F 48% 30.00 in 10.0 mi Calm Calm - N/A   Clear